Location: St. Louis
(38.6270°N, 90.1994°W)
Time: 04:42:07
(UTC-06:00)

Explorer 7 - Pass Details

Date: 12 December 2021
Orbit: 483 x 674 km, 50.3° (Epoch: 19 January)

Event Time Altitude Azimuth Distance (km) Brightness Sun altitude
Exits shadow 06:12:45 10° 325° (NW) 1,857 9.0 -10.9°
Maximum altitude 06:15:39 18° 9° (N) 1,390 8.7 -10.3°
Drops below altitude 10° 06:18:31 10° 53° (NE) 1,792 9.9 -9.8°
Sets 06:21:15 0° 73° (ENE) 2,644 11.2 -9.3°
